TURKSAT 5B

Last updated on Mon Sep 07 2026 00:03:01 GMT+0000 (Coordinated Universal Time)

1 50212U 21126A 26249.60005503 .00000130 00000+0 00000+0 0 9996 2 50212 0.0741 329.7638 0001776 328.0954 305.8495 1.00271384 17114
UTC large
Height (km)
Speed (km/s)
/
Latitude / Longitude
Inclination (degrees)
Orbital Period (minutes)
Azimuth
Elevation
Range (km)
Doppler Factor

Next 0 passes for location: London (51.5072 / 0.1276)

No passes found over London.
TURKSAT 5B